User: anonymous   Login
Location: Unspecified
(53.5511°N, 0.0000°E)
Time: 00:23:44
(UTC+00:00)
Language:

Cosmos 1802 Rocket - Orbit

View from above orbital plane
View from above orbital plane
View from above satellite
View from above satellite

Ground track
Ground track

The orbit is defined by the following mean orbital elements,

1 17160U          26088.11356472 +.00000000 +00000-0 +26704-4 0 00004
2 17160  82.9306 204.9064 0038387 208.2542 325.5726 13.74913013    04
Epoch (UTC): 29 March 2026 02:43:31
Eccentricity: 0.0038387
inclination: 82.9306°
perigee height: 954 km
apogee height: 1010 km
right ascension of ascending node: 204.9064°
argument of perigee: 208.2542°
revolutions per day: 13.74913013
mean anomaly at epoch: 325.5726°

The dashed part of the orbit path shows where the satellite is in the earth's shadow,  

DLR